Wind_Speed
5 6 7 9 12 12 13 15 15 16 17 16 15 13 12 12 14 12 12 14 14 15
5 5 7 10 12 11 12 13 15 16 16 15 14 13 12 13 14 14 13 13 13 15
5 6 7 10 10 10 11 12 13 16 16 15 14 14 13 14 14 15 14 13 15 17
4 5 6 7 8 9 12 13 15 17 16 14 14 15 16 16 17 17 16 14 14 17
1 2 4 9 11 12 13 13 15 17 16 14 14 15 16 17 18 19 19 18 16 17
4 5 8 12 12 13 14 13 15 18 18 15 14 15 15 16 17 19 21 21 19 21
9 10 11 12 12 13 15 15 16 18 18 15 15 15 15 16 17 19 21 22 22 22
10 11 10 10 11 12 13 14 13 16 18 17 17 18 17 17 17 18 19 21 22 22
10 10 8 8 9 8 11 13 14 14 17 16 17 16 16 16 17 17 18 19 21 21
10 9 7 6 6 7 9 10 11 13 13 14 15 15 15 14 14 15 17 18 20 21
11 10 9 7 6 5 5 6 8 10 11 12 13 14 14 15 14 15 17 18 19 20
12 11 10 9 6 4 2 4 6 7 8 10 12 14 14 14 15 15 16 17 18 19
13 12 11 9 6 4 1 3 5 5 7 10 12 14 15 15 15 16 17 18 18 19
13 12 10 8 5 2 1 2 4 5 8 10 12 14 16 17 18 19 19 20 20 20
Wind_Direction
322 334 341 350 349 347 347 351 359 4 4 9 8 8 18 13 8 6 359 353 355 351
307 316 335 347 348 355 358 2 10 13 13 13 13 14 20 14 8 4 3 4 359 353
292 322 346 351 357 9 15 19 25 22 22 21 20 21 23 18 17 10 9 7 5 4
294 327 350 13 33 41 37 37 31 26 25 28 29 32 32 34 27 21 18 9 9 8
299 354 50 53 58 51 42 37 33 29 32 35 34 36 35 35 28 24 23 20 17 11
102 97 90 69 61 55 45 45 40 37 40 42 41 37 34 32 29 28 27 26 21 18
101 104 95 78 66 61 53 53 48 45 46 45 49 43 38 34 32 31 29 29 29 29
113 104 95 83 72 61 59 59 56 49 46 43 45 41 38 34 32 32 31 30 30 35
126 117 112 97 76 67 63 55 52 50 46 39 39 37 31 28 24 25 25 26 27 28
146 138 134 112 98 79 62 50 43 40 37 35 38 33 27 22 18 16 19 20 20 25
159 149 143 133 116 92 68 48 38 31 26 25 32 31 26 21 17 15 15 13 14 17
167 159 149 149 139 112 66 16 12 16 15 17 22 23 22 17 16 15 16 13 12 12
174 172 169 165 154 146 153 335 345 350 5 12 11 14 12 11 12 13 14 14 14 14
179 178 185 190 192 200 271 290 313 344 0 360 2 3 4 3 3 7 7 6 9 10
Height
1511 1509 1508 1506 1505 1504 1502 1500 1497 1494 1492 1490 1488 1485 1482 1479 1477 1475 1473 1470 1468 1464
1510 1509 1509 1507 1504 1503 1502 1500 1497 1495 1493 1490 1487 1484 1481 1478 1476 1474 1472 1469 1467 1463
1511 1509 1507 1507 1504 1503 1502 1500 1497 1496 1492 1490 1487 1484 1481 1478 1476 1473 1471 1468 1465 1461
1509 1508 1508 1507 1505 1503 1502 1500 1498 1496 1493 1490 1487 1485 1482 1479 1476 1473 1470 1467 1464 1461
1508 1508 1508 1507 1505 1503 1502 1501 1499 1496 1493 1491 1489 1486 1484 1481 1478 1474 1471 1468 1465 1461
1508 1508 1508 1507 1506 1504 1503 1502 1500 1497 1494 1492 1490 1488 1486 1483 1480 1477 1473 1470 1466 1461
1508 1508 1508 1507 1506 1505 1504 1502 1501 1499 1497 1495 1492 1490 1487 1485 1482 1479 1476 1472 1467 1463
1508 1508 1508 1508 1507 1506 1505 1504 1503 1501 1499 1497 1495 1492 1489 1486 1484 1481 1478 1474 1470 1465
1507 1508 1508 1508 1507 1507 1506 1504 1504 1503 1501 1499 1496 1494 1491 1489 1486 1483 1479 1476 1472 1467
1507 1507 1508 1507 1507 1507 1506 1505 1505 1504 1502 1500 1498 1495 1493 1490 1487 1484 1480 1476 1472 1468
1506 1506 1507 1507 1507 1507 1506 1506 1506 1505 1503 1502 1499 1496 1494 1490 1487 1484 1480 1476 1472 1468
1505 1505 1506 1507 1507 1507 1507 1506 1506 1505 1503 1501 1499 1496 1494 1491 1488 1484 1480 1476 1472 1468
1503 1504 1505 1506 1506 1506 1506 1506 1505 1504 1502 1500 1498 1496 1493 1490 1487 1483 1479 1475 1471 1467
1502 1504 1505 1505 1506 1506 1506 1505 1504 1502 1501 1499 1497 1494 1491 1488 1485 1481 1477 1474 1470 1466